Location: Prairie View Elementary School
(39.8322°N, 99.5698°W)
Time: 12:46:34
(UTC+00:00)

Cosmos 1782 Rocket - Pass Details

Date: 08 December 2019
Orbit: 606 x 633 km, 82.5° (Epoch: 18 January)

Event Time Altitude Azimuth Distance (km) Brightness Sun altitude
Rises 01:31:34 0° 348° (NNW) 2,884 7.0 -25.8°
Reaches altitude 10° 01:33:49 10° 345° (NNW) 1,972 6.2 -26.2°
Enters shadow 01:36:41 38° 326° (NW) 934 4.6 -26.8°
Exits shadow 01:38:42 53° 229° (SW) 749 4.1 -27.2°
Drops below altitude 10° 01:42:20 10° 187° (S) 1,949 6.2 -27.9°
Sets 01:44:33 0° 183° (S) 2,847 7.1 -28.3°
